Temp
-3 -4 -5 -5 -5 -6 -7 -8 -7 -8 -9 -11 -11 -11 -12 -12 -12 -12 -12 -12 -12 -12 -13 -13 -13 -13 -13 -13 -13 -13 -13 -13 -13 -14 -14 -14 -14 -13 -14 -13 -13 -13 -13 -13 -13 -13 -13 -13 -12 -12 -13 -13 -13 -13
-4 -4 -5 -5 -6 -7 -7 -8 -8 -9 -9 -10 -11 -11 -11 -12 -12 -12 -11 -12 -12 -13 -13 -13 -14 -14 -14 -14 -14 -13 -14 -14 -14 -14 -14 -14 -14 -14 -14 -14 -13 -13 -13 -13 -13 -13 -13 -13 -13 -13 -13 -13 -13 -13
-4 -5 -5 -5 -6 -7 -8 -8 -8 -9 -9 -9 -10 -11 -11 -11 -11 -12 -12 -12 -12 -13 -13 -13 -13 -14 -14 -14 -14 -14 -14 -14 -14 -14 -14 -14 -14 -14 -14 -14 -14 -14 -14 -14 -14 -14 -14 -14 -14 -14 -14 -14 -14 -14
-5 -5 -5 -6 -7 -7 -8 -8 -8 -9 -9 -9 -10 -10 -11 -11 -11 -12 -12 -12 -12 -13 -13 -13 -14 -14 -14 -14 -14 -14 -14 -14 -14 -14 -14 -14 -14 -14 -14 -14 -14 -14 -14 -14 -14 -14 -14 -14 -14 -14 -14 -14 -14 -15
-5 -5 -6 -6 -6 -7 -8 -8 -9 -9 -9 -9 -10 -11 -11 -11 -11 -11 -12 -12 -12 -13 -13 -13 -14 -14 -14 -14 -14 -14 -14 -14 -14 -14 -14 -14 -14 -14 -14 -14 -14 -14 -14 -14 -15 -15 -15 -15 -15 -14 -14 -14 -14 -15
-5 -6 -6 -6 -7 -7 -8 -9 -9 -9 -9 -10 -10 -11 -11 -11 -11 -11 -12 -12 -13 -13 -13 -14 -14 -14 -14 -14 -14 -14 -14 -14 -14 -14 -15 -15 -14 -14 -15 -15 -14 -15 -15 -15 -15 -15 -16 -16 -15 -15 -14 -14 -14 -14
-6 -6 -6 -6 -7 -7 -8 -9 -9 -9 -9 -10 -10 -11 -11 -11 -11 -12 -12 -13 -13 -13 -13 -14 -14 -14 -14 -14 -14 -14 -14 -14 -14 -15 -15 -15 -15 -15 -15 -15 -15 -15 -15 -15 -15 -15 -15 -15 -14 -14 -14 -14 -13 -14
-6 -6 -6 -6 -7 -7 -8 -9 -9 -10 -10 -10 -10 -11 -11 -11 -11 -12 -12 -12 -12 -12 -13 -14 -14 -13 -14 -14 -14 -14 -15 -15 -15 -15 -15 -15 -15 -15 -15 -15 -15 -15 -15 -15 -14 -14 -14 -14 -13 -13 -13 -13 -12 -13
-6 -6 -6 -7 -7 -7 -8 -9 -10 -10 -10 -10 -10 -11 -11 -11 -11 -11 -12 -12 -12 -12 -13 -14 -14 -14 -14 -14 -14 -15 -15 -15 -15 -15 -15 -15 -15 -15 -15 -15 -15 -14 -14 -14 -14 -13 -13 -13 -13 -12 -12 -12 -13 -13
-7 -7 -7 -7 -7 -8 -8 -9 -10 -10 -10 -10 -10 -10 -11 -11 -11 -11 -12 -12 -12 -13 -13 -14 -14 -14 -14 -14 -14 -15 -15 -15 -15 -15 -15 -15 -15 -15 -15 -14 -14 -14 -13 -13 -13 -13 -12 -12 -12 -12 -12 -12 -13 -13
-7 -7 -7 -7 -8 -8 -8 -9 -9 -10 -10 -10 -10 -11 -11 -11 -11 -12 -12 -12 -13 -13 -14 -14 -13 -13 -13 -14 -14 -14 -15 -15 -14 -14 -14 -14 -15 -15 -15 -14 -14 -13 -13 -13 -13 -12 -12 -12 -13 -13 -13 -13 -13 -13
-7 -8 -8 -8 -8 -9 -9 -10 -10 -10 -10 -10 -11 -11 -11 -11 -12 -12 -12 -13 -13 -13 -14 -14 -14 -13 -13 -13 -14 -14 -14 -14 -14 -14 -14 -14 -14 -14 -14 -14 -14 -14 -13 -13 -13 -13 -13 -13 -13 -13 -13 -13 -13 -13
-8 -8 -8 -8 -9 -9 -10 -10 -10 -10 -10 -11 -11 -11 -11 -12 -12 -12 -13 -13 -14 -14 -14 -14 -14 -13 -13 -13 -14 -14 -14 -14 -14 -13 -13 -13 -13 -14 -14 -14 -14 -14 -14 -14 -13 -13 -13 -13 -13 -13 -13 -13 -13 -14
-8 -8 -8 -8 -9 -9 -10 -10 -10 -10 -11 -11 -11 -11 -11 -12 -12 -12 -13 -13 -13 -14 -14 -14 -13 -13 -13 -13 -13 -13 -13 -13 -13 -13 -13 -13 -14 -14 -14 -14 -14 -14 -14 -14 -14 -14 -14 -14 -14 -14 -14 -14 -14 -14
-9 -9 -9 -9 -9 -9 -9 -10 -10 -11 -11 -12 -11 -11 -11 -12 -12 -12 -13 -13 -13 -13 -13 -13 -12 -13 -13 -13 -13 -13 -13 -13 -13 -13 -14 -14 -14 -14 -15 -15 -15 -15 -15 -15 -14 -14 -14 -14 -14 -14 -15 -15 -15 -15
-9 -9 -9 -9 -9 -9 -9 -10 -10 -10 -11 -11 -11 -11 -11 -12 -12 -12 -13 -13 -13 -13 -13 -13 -13 -13 -13 -12 -13 -12 -13 -12 -13 -13 -14 -14 -15 -15 -15 -15 -15 -15 -14 -14 -14 -14 -15 -15 -15 -15 -15 -15 -16 -16
-9 -9 -9 -9 -9 -10 -10 -10 -10 -10 -10 -11 -10 -11 -11 -12 -12 -12 -12 -13 -13 -13 -13 -13 -13 -12 -13 -13 -13 -13 -13 -13 -14 -14 -15 -15 -15 -14 -14 -14 -14 -14 -14 -15 -15 -15 -15 -15 -15 -16 -16 -16 -16 -16
-10 -10 -10 -10 -10 -10 -10 -10 -10 -10 -10 -10 -11 -11 -11 -11 -12 -12 -12 -12 -13 -13 -13 -13 -14 -13 -13 -13 -12 -13 -14 -14 -14 -14 -15 -14 -14 -14 -14 -14 -14 -14 -14 -14 -14 -15 -15 -15 -15 -16 -16 -16 -16 -17
-10 -10 -10 -10 -10 -10 -11 -10 -10 -10 -10 -10 -10 -11 -11 -11 -12 -12 -12 -12 -12 -12 -13 -13 -13 -12 -13 -13 -13 -14 -14 -14 -14 -14 -14 -14 -13 -13 -13 -13 -14 -14 -14 -14 -14 -15 -15 -15 -15 -16 -16 -17 -17 -17
-10 -10 -10 -11 -11 -11 -11 -11 -11 -11 -10 -10 -10 -11 -11 -11 -11 -11 -12 -12 -12 -12 -12 -12 -12 -13 -13 -13 -13 -14 -14 -14 -14 -13 -13 -13 -13 -13 -13 -14 -14 -14 -14 -14 -14 -15 -15 -15 -16 -16 -16 -16 -17 -17
-10 -11 -11 -11 -11 -11 -12 -11 -11 -11 -11 -12 -11 -11 -11 -11 -11 -11 -11 -11 -11 -11 -11 -12 -12 -13 -13 -13 -14 -14 -14 -14 -14 -13 -13 -13 -13 -13 -14 -14 -14 -14 -14 -14 -14 -15 -15 -15 -15 -16 -16 -16 -16 -17
-11 -11 -11 -11 -11 -11 -10 -10 -11 -11 -12 -11 -11 -11 -11 -11 -11 -11 -11 -11 -10 -11 -12 -12 -12 -13 -13 -13 -14 -14 -14 -14 -14 -14 -14 -13 -13 -13 -14 -14 -14 -14 -15 -15 -15 -15 -15 -15 -15 -16 -16 -16 -17 -17
-12 -12 -12 -11 -11 -11 -10 -10 -10 -11 -12 -12 -11 -11 -11 -11 -11 -11 -12 -11 -11 -11 -12 -13 -13 -13 -13 -14 -14 -14 -14 -14 -14 -14 -14 -14 -14 -14 -13 -14 -14 -14 -14 -14 -15 -15 -15 -15 -16 -16 -16 -16 -17 -17
-13 -13 -13 -13 -11 -11 -10 -10 -11 -11 -11 -12 -12 -12 -12 -11 -11 -12 -12 -11 -11 -12 -12 -13 -13 -14 -14 -14 -14 -14 -14 -14 -14 -14 -14 -14 -14 -14 -14 -14 -14 -14 -15 -15 -15 -15 -15 -16 -16 -16 -16 -17 -17 -17
-15 -14 -14 -13 -12 -11 -11 -10 -10 -11 -11 -11 -12 -12 -12 -12 -12 -12 -12 -11 -12 -13 -13 -12 -13 -14 -14 -15 -15 -14 -15 -15 -15 -15 -15 -14 -14 -14 -15 -15 -15 -15 -15 -15 -15 -16 -16 -16 -16 -16 -17 -17 -17 -18
-16 -15 -14 -13 -12 -12 -12 -12 -12 -12 -12 -12 -12 -12 -12 -13 -13 -13 -12 -13 -13 -13 -13 -14 -14 -14 -15 -15 -15 -15 -15 -15 -15 -15 -15 -15 -15 -15 -15 -15 -15 -15 -16 -16 -16 -16 -16 -17 -17 -17 -17 -18 -18 -18
-17 -16 -14 -14 -13 -13 -13 -13 -13 -14 -13 -14 -14 -14 -14 -14 -13 -12 -13 -13 -13 -14 -15 -15 -15 -15 -16 -16 -15 -15 -15 -15 -15 -15 -15 -15 -15 -15 -16 -16 -16 -16 -16 -16 -16 -16 -17 -17 -17 -18 -18 -18 -19 -19
-16 -16 -15 -15 -15 -15 -15 -14 -14 -15 -15 -15 -14 -13 -13 -13 -13 -13 -14 -14 -15 -15 -15 -15 -15 -16 -16 -16 -15 -15 -15 -15 -15 -15 -15 -16 -16 -16 -16 -16 -16 -16 -16 -16 -17 -17 -17 -17 -18 -18 -18 -19 -20 -20
-14 -14 -15 -16 -16 -16 -16 -15 -15 -14 -14 -14 -14 -14 -14 -14 -14 -15 -15 -15 -15 -15 -15 -15 -16 -16 -16 -16 -16 -16 -15 -16 -16 -16 -16 -16 -16 -16 -17 -17 -17 -17 -17 -17 -17 -17 -18 -18 -18 -19 -19 -20 -21 -21
-14 -15 -15 -15 -15 -15 -15 -15 -15 -15 -15 -15 -15 -15 -15 -15 -15 -15 -15 -15 -15 -15 -15 -15 -15 -15 -16 -16 -16 -16 -16 -16 -16 -16 -17 -17 -17 -17 -17 -17 -17 -17 -17 -18 -18 -18 -18 -19 -19 -20 -20 -21 -22 -22
-16 -16 -16 -15 -15 -15 -15 -15 -15 -15 -15 -15 -15 -15 -15 -15 -15 -15 -15 -15 -15 -15 -15 -15 -15 -16 -16 -17 -16 -16 -17 -17 -17 -17 -17 -17 -17 -17 -17 -17 -18 -18 -18 -18 -19 -19 -20 -20 -21 -21 -22 -22 -23 -24
-16 -16 -16 -16 -16 -16 -16 -16 -16 -16 -15 -15 -15 -15 -15 -15 -15 -15 -15 -15 -15 -15 -15 -16 -16 -17 -18 -17 -17 -17 -18 -18 -18 -18 -18 -18 -18 -18 -18 -18 -19 -19 -19 -20 -20 -21 -21 -22 -22 -23 -23 -24 -25 -25
-17 -16 -16 -16 -16 -16 -16 -16 -16 -15 -15 -15 -14 -15 -15 -15 -15 -15 -15 -16 -16 -17 -17 -17 -18 -18 -18 -18 -18 -19 -19 -19 -19 -19 -19 -18 -18 -19 -19 -19 -20 -20 -21 -21 -22 -22 -23 -23 -24 -24 -24 -25 -26 -26
Height
3078 3071 3066 3059 3052 3045 3038 3029 3020 3010 3000 2992 2987 2981 2977 2973 2969 2966 2963 2961 2958 2956 2956 2953 2949 2946 2945 2944 2943 2943 2943 2942 2942 2941 2942 2941 2939 2938 2937 2936 2935 2936 2937 2938 2940 2940 2942 2941 2942 2944 2945 2944 2945 2946
3073 3067 3061 3055 3048 3041 3034 3026 3017 3007 2997 2991 2986 2982 2977 2973 2969 2966 2963 2960 2958 2957 2954 2951 2948 2946 2945 2943 2942 2942 2943 2942 2942 2941 2942 2940 2940 2939 2938 2937 2937 2938 2939 2938 2940 2939 2939 2940 2941 2941 2941 2941 2941 2941
3068 3063 3057 3051 3044 3037 3031 3024 3016 3007 2999 2992 2985 2981 2977 2973 2970 2966 2963 2959 2957 2954 2953 2952 2949 2948 2945 2944 2943 2943 2941 2940 2938 2940 2940 2940 2940 2939 2939 2938 2937 2937 2937 2937 2938 2937 2936 2936 2936 2936 2936 2936 2935 2935
3064 3059 3053 3048 3041 3034 3028 3021 3014 3007 3002 2994 2987 2982 2978 2973 2969 2967 2963 2959 2957 2954 2954 2953 2949 2948 2946 2943 2940 2939 2937 2937 2937 2938 2938 2938 2939 2938 2937 2937 2936 2936 2936 2935 2935 2934 2932 2932 2932 2932 2931 2931 2930 2929
3060 3055 3050 3043 3037 3030 3024 3019 3012 3005 3001 2993 2988 2983 2978 2973 2969 2966 2963 2959 2957 2957 2954 2951 2950 2948 2946 2943 2940 2938 2936 2935 2935 2936 2936 2937 2936 2936 2935 2934 2934 2934 2933 2933 2932 2931 2930 2929 2929 2928 2927 2926 2924 2922
3056 3051 3045 3040 3033 3027 3021 3015 3010 3004 3000 2994 2988 2983 2978 2974 2970 2966 2963 2960 2957 2955 2952 2950 2950 2948 2945 2942 2940 2939 2937 2935 2934 2933 2934 2934 2934 2935 2934 2933 2933 2932 2931 2929 2928 2926 2924 2923 2924 2924 2924 2923 2921 2920
3052 3047 3042 3035 3029 3022 3016 3011 3006 3002 2997 2992 2988 2983 2979 2975 2971 2967 2965 2961 2957 2954 2952 2951 2950 2948 2946 2943 2940 2937 2934 2932 2932 2932 2932 2932 2932 2933 2932 2932 2931 2929 2928 2927 2925 2923 2922 2922 2922 2923 2922 2922 2921 2921
3048 3043 3037 3032 3026 3018 3012 3007 3004 2999 2994 2990 2986 2983 2979 2974 2971 2968 2965 2961 2958 2956 2954 2954 2953 2949 2946 2942 2938 2935 2933 2931 2931 2931 2931 2930 2930 2931 2931 2931 2929 2928 2927 2925 2924 2923 2922 2922 2922 2923 2923 2923 2923 2924
3044 3039 3034 3029 3023 3016 3010 3005 3003 2998 2993 2989 2985 2982 2979 2976 2972 2969 2966 2964 2961 2962 2958 2956 2953 2949 2945 2941 2937 2935 2934 2933 2933 2932 2931 2932 2931 2932 2931 2930 2928 2926 2925 2924 2924 2924 2923 2923 2924 2924 2924 2924 2925 2925
3040 3036 3032 3027 3021 3015 3010 3004 3001 2998 2994 2989 2985 2982 2978 2977 2973 2971 2967 2965 2963 2961 2959 2957 2953 2949 2946 2940 2938 2937 2935 2935 2934 2935 2934 2933 2933 2932 2931 2929 2927 2926 2925 2925 2925 2925 2925 2925 2925 2925 2925 2925 2925 2925
3037 3033 3029 3024 3018 3014 3009 3005 3000 2999 2995 2990 2985 2982 2980 2977 2974 2971 2969 2967 2965 2963 2960 2957 2953 2949 2945 2942 2939 2938 2937 2936 2936 2937 2935 2935 2935 2934 2932 2930 2929 2928 2927 2926 2926 2925 2925 2926 2925 2925 2925 2925 2924 2924
3034 3030 3026 3022 3018 3013 3009 3005 3000 2998 2994 2989 2985 2981 2979 2977 2975 2974 2971 2969 2967 2965 2962 2957 2952 2949 2945 2941 2940 2940 2938 2938 2937 2937 2936 2936 2936 2935 2934 2933 2931 2930 2928 2927 2926 2925 2925 2924 2924 2923 2922 2922 2922 2921
3029 3025 3022 3018 3015 3012 3008 3003 2999 2995 2992 2987 2983 2981 2979 2979 2977 2975 2973 2971 2968 2965 2960 2956 2951 2947 2944 2943 2941 2940 2939 2939 2939 2938 2938 2938 2936 2935 2934 2933 2931 2930 2928 2927 2925 2924 2923 2922 2921 2920 2919 2918 2917 2916
3025 3021 3018 3014 3010 3007 3003 3000 2996 2993 2989 2986 2982 2980 2979 2978 2976 2975 2972 2969 2967 2963 2959 2954 2949 2947 2944 2943 2941 2940 2940 2939 2938 2938 2938 2937 2935 2934 2932 2930 2928 2926 2924 2923 2921 2919 2918 2916 2915 2914 2913 2912 2911 2910
3020 3017 3014 3011 3008 3004 3000 2997 2994 2991 2988 2986 2983 2980 2978 2977 2975 2973 2970 2968 2965 2962 2958 2953 2948 2947 2944 2943 2942 2941 2939 2938 2937 2937 2936 2934 2933 2931 2928 2925 2923 2920 2918 2916 2913 2911 2910 2908 2907 2906 2905 2904 2903 2903
3015 3013 3010 3007 3004 3001 2997 2993 2991 2988 2985 2983 2980 2978 2976 2974 2973 2970 2968 2966 2963 2960 2956 2953 2949 2946 2945 2943 2941 2939 2938 2937 2936 2935 2933 2931 2928 2924 2921 2918 2915 2912 2909 2907 2904 2903 2901 2900 2899 2898 2897 2896 2895 2894
3011 3009 3006 3003 3000 2997 2993 2990 2987 2984 2982 2980 2977 2975 2973 2971 2969 2967 2965 2963 2960 2958 2955 2953 2950 2947 2945 2941 2940 2938 2937 2936 2933 2931 2928 2924 2921 2917 2914 2911 2907 2904 2901 2898 2896 2894 2892 2891 2890 2889 2887 2885 2885 2885
3005 3003 3000 2998 2995 2992 2989 2986 2983 2980 2977 2976 2973 2972 2969 2967 2965 2963 2961 2959 2956 2954 2951 2950 2947 2944 2943 2939 2937 2936 2933 2931 2928 2925 2922 2919 2915 2912 2908 2903 2899 2895 2892 2889 2887 2885 2883 2881 2880 2878 2877 2876 2877 2878
2998 2996 2995 2992 2990 2988 2984 2980 2979 2975 2973 2971 2969 2967 2965 2963 2961 2959 2956 2954 2951 2949 2947 2944 2942 2939 2938 2936 2934 2931 2929 2926 2923 2921 2918 2914 2910 2906 2902 2897 2893 2888 2884 2881 2878 2876 2873 2871 2870 2869 2869 2869 2870 2871
2992 2990 2988 2986 2985 2982 2979 2976 2973 2969 2966 2966 2964 2962 2960 2958 2956 2954 2951 2948 2946 2943 2941 2938 2937 2934 2933 2931 2930 2928 2924 2921 2917 2915 2913 2909 2905 2901 2896 2892 2888 2884 2880 2877 2873 2870 2868 2866 2865 2864 2864 2864 2865 2867
2985 2984 2981 2980 2978 2978 2974 2970 2967 2964 2960 2958 2956 2955 2954 2953 2951 2948 2946 2943 2940 2938 2935 2934 2931 2929 2928 2927 2925 2923 2920 2916 2912 2908 2906 2904 2900 2896 2892 2888 2884 2881 2878 2875 2871 2869 2867 2865 2864 2863 2863 2863 2864 2865
2977 2975 2973 2972 2971 2969 2966 2962 2961 2957 2955 2952 2949 2948 2947 2946 2945 2943 2940 2937 2934 2933 2930 2928 2926 2924 2923 2922 2921 2918 2915 2912 2908 2904 2901 2899 2896 2892 2889 2886 2882 2879 2876 2874 2871 2868 2867 2865 2864 2863 2863 2863 2864 2865
2968 2967 2965 2965 2963 2961 2959 2955 2953 2951 2949 2945 2945 2944 2942 2940 2938 2937 2934 2931 2929 2927 2924 2921 2920 2919 2918 2917 2916 2913 2910 2906 2903 2899 2896 2894 2892 2889 2886 2883 2881 2878 2875 2873 2870 2868 2867 2866 2865 2865 2864 2864 2863 2863
2959 2958 2958 2955 2954 2952 2950 2949 2947 2945 2943 2942 2939 2938 2936 2934 2932 2929 2926 2924 2922 2918 2915 2914 2913 2913 2913 2912 2910 2908 2905 2901 2897 2894 2892 2890 2888 2886 2883 2881 2879 2876 2874 2872 2870 2868 2867 2866 2865 2863 2863 2862 2861 2860
2953 2953 2950 2946 2945 2944 2943 2941 2940 2939 2938 2936 2935 2933 2930 2929 2926 2921 2918 2916 2914 2912 2910 2909 2909 2909 2909 2906 2904 2902 2899 2895 2892 2889 2888 2886 2884 2882 2881 2878 2876 2874 2872 2870 2868 2867 2865 2864 2862 2861 2860 2858 2857 2855
2943 2941 2941 2937 2937 2937 2936 2934 2934 2934 2933 2931 2930 2928 2925 2923 2920 2916 2912 2911 2910 2909 2908 2907 2907 2905 2904 2901 2898 2894 2891 2889 2887 2885 2884 2882 2881 2879 2877 2875 2873 2871 2869 2867 2866 2864 2862 2861 2859 2857 2855 2854 2852 2850
2933 2932 2932 2930 2931 2931 2930 2929 2929 2928 2927 2926 2923 2922 2921 2917 2913 2911 2909 2908 2907 2905 2904 2902 2900 2898 2896 2892 2890 2888 2886 2884 2883 2882 2881 2879 2878 2876 2874 2872 2870 2868 2866 2864 2862 2860 2858 2855 2853 2851 2849 2847 2844 2842
2923 2921 2922 2924 2924 2925 2924 2923 2922 2920 2918 2915 2915 2915 2914 2911 2909 2908 2905 2903 2901 2899 2897 2895 2893 2891 2888 2886 2884 2882 2881 2880 2879 2878 2877 2876 2875 2873 2871 2869 2867 2864 2862 2860 2857 2854 2851 2849 2846 2844 2841 2838 2836 2833
2913 2913 2914 2915 2916 2915 2914 2913 2911 2910 2910 2909 2908 2906 2905 2903 2902 2900 2898 2896 2894 2892 2890 2888 2886 2884 2882 2880 2878 2877 2876 2876 2875 2875 2874 2872 2871 2869 2867 2864 2862 2860 2857 2854 2850 2848 2844 2842 2839 2835 2832 2829 2827 2824
2906 2907 2906 2906 2906 2905 2905 2904 2903 2902 2901 2901 2899 2897 2895 2894 2892 2891 2889 2887 2886 2884 2882 2880 2878 2876 2875 2874 2873 2873 2872 2872 2871 2871 2869 2868 2866 2864 2862 2859 2856 2853 2850 2847 2844 2841 2837 2834 2830 2827 2824 2821 2818 2815
2900 2900 2898 2898 2896 2897 2897 2896 2893 2892 2891 2890 2889 2887 2885 2883 2882 2881 2879 2878 2876 2875 2873 2871 2870 2869 2869 2868 2869 2869 2869 2868 2867 2866 2865 2863 2861 2859 2857 2854 2850 2847 2844 2840 2837 2833 2829 2826 2822 2819 2816 2813 2810 2808
2892 2891 2890 2888 2888 2889 2887 2885 2883 2881 2880 2879 2878 2877 2876 2874 2873 2871 2870 2868 2867 2865 2864 2863 2863 2863 2864 2865 2865 2865 2864 2863 2862 2861 2859 2858 2856 2853 2850 2847 2844 2840 2837 2833 2829 2826 2822 2818 2815 2812 2809 2806 2804 2802
2883 2883 2882 2881 2880 2879 2878 2877 2873 2871 2871 2870 2869 2868 2867 2866 2864 2863 2862 2860 2860 2859 2858 2858 2858 2859 2860 2861 2861 2860 2859 2858 2857 2856 2854 2851 2850 2848 2844 2840 2837 2833 2830 2826 2823 2819 2815 2812 2809 2806 2804 2802 2800 2798
Wind_Speed
40 36 36 38 40 40 42 46 50 50 46 37 32 28 25 24 20 18 18 18 20 13 15 20 18 13 16 19 11 5 9 5 6 1 2 3 4 7 6 9 6 3 3 5 8 3 2 3 3 3 8 3 6 10
36 33 35 37 38 39 41 44 46 44 40 36 29 26 24 21 17 17 17 16 16 20 20 14 16 13 13 10 10 9 8 10 7 5 5 4 4 6 7 4 4 2 4 5 4 2 3 5 8 11 14 17 19 20
31 32 35 37 37 38 39 40 41 38 35 31 27 23 20 17 18 19 17 16 21 17 8 10 15 13 11 8 9 10 10 9 10 5 6 5 6 6 5 3 5 8 7 5 8 2 13 13 13 15 21 17 15 15
29 32 35 36 37 38 37 36 36 34 31 29 26 20 21 18 17 16 15 19 16 13 13 15 12 12 12 14 14 10 12 10 10 13 11 9 8 7 5 7 15 12 11 9 11 13 13 13 12 9 10 14 16 18
29 32 34 35 37 37 34 31 31 30 26 26 28 22 23 22 17 15 16 14 12 12 13 14 7 8 14 17 11 11 10 4 8 10 9 9 8 6 8 9 5 6 7 10 13 11 17 19 18 16 17 16 15 13
29 32 33 35 37 37 31 28 28 27 24 26 23 25 20 18 20 19 13 12 12 14 16 9 8 9 16 13 8 9 10 7 6 6 6 7 12 10 5 3 4 10 18 13 11 12 13 12 13 11 10 7 5 1
29 32 32 34 36 36 30 25 24 24 24 25 21 19 19 20 18 14 14 15 15 14 12 6 8 13 15 14 15 12 12 9 6 6 9 11 12 7 8 11 10 8 9 10 9 8 5 2 1 1 2 4 6 7
28 31 32 34 35 34 28 23 20 20 23 20 17 20 18 16 16 16 15 15 14 12 11 11 10 11 22 22 17 12 8 6 4 2 4 5 4 2 1 4 8 10 10 9 8 5 2 3 4 5 6 7 8 7
28 30 30 32 33 30 25 21 18 21 17 17 20 17 13 16 15 12 12 12 12 15 11 16 21 15 25 23 16 10 9 6 8 7 5 4 5 3 5 8 9 9 7 5 4 3 4 4 5 5 5 6 6 6
27 28 29 30 30 25 22 19 18 15 15 20 21 16 15 15 13 12 10 11 11 10 15 23 24 24 23 19 13 9 7 6 4 9 4 5 7 9 12 11 9 7 5 4 3 3 3 1 2 3 3 3 3 2
26 26 26 27 25 22 21 19 16 12 18 22 21 14 13 11 10 8 11 9 9 7 15 26 25 25 21 17 9 7 5 5 4 6 4 3 6 11 13 15 13 10 7 5 4 3 2 4 5 5 5 5 5 6
25 24 24 24 22 20 19 19 19 20 21 22 18 13 9 8 6 7 10 8 7 9 22 25 25 23 16 13 6 6 4 4 3 6 3 2 4 7 11 12 11 11 10 9 7 6 6 6 8 9 10 11 11 11
23 23 23 22 22 21 21 22 22 22 22 20 14 7 6 4 6 6 9 9 13 19 24 26 26 19 10 9 4 4 4 3 2 2 3 6 7 9 10 10 10 10 11 11 11 11 10 10 10 11 13 14 15 16
22 22 21 22 22 22 22 22 22 21 20 17 9 6 3 3 5 12 14 15 18 21 24 26 21 9 9 5 4 4 4 2 2 1 2 7 9 11 13 16 18 19 19 19 19 19 19 20 20 20 19 18 18 19
21 21 20 21 21 21 21 20 20 19 18 13 8 4 4 9 12 15 15 16 19 21 23 25 14 8 6 3 4 3 3 2 1 2 8 12 15 20 23 25 26 26 26 25 25 24 24 23 19 19 20 22 23 22
19 20 20 20 21 21 20 20 20 19 18 10 5 9 13 13 14 14 16 17 18 20 21 21 11 6 4 6 4 3 3 3 6 12 16 21 26 29 29 28 27 27 26 25 24 24 23 21 20 21 23 24 23 23
20 20 21 22 22 21 21 20 20 19 8 7 14 15 14 14 15 15 17 18 20 21 19 16 7 5 8 5 4 4 5 13 18 23 27 28 25 25 26 27 28 28 27 27 26 24 22 23 26 28 27 25 23 23
20 21 23 23 23 22 21 20 19 11 15 18 16 15 15 15 17 17 18 21 22 21 20 15 14 15 7 7 11 15 20 23 24 23 19 23 25 27 29 31 31 31 30 29 28 27 27 27 26 26 24 23 20 20
22 21 22 23 23 23 23 24 16 16 23 17 15 14 16 18 16 18 21 21 22 20 19 16 9 11 14 17 18 18 19 21 20 19 20 22 25 27 27 26 25 24 23 22 21 20 20 21 20 19 17 16 15 14
24 23 22 23 23 24 23 19 24 24 21 20 24 21 19 16 17 18 20 20 20 21 22 22 20 17 15 14 14 16 19 21 22 19 18 21 25 25 25 24 22 20 18 17 17 15 14 13 12 10 9 9 8 9
24 24 24 24 23 24 27 25 23 20 28 30 27 20 19 17 17 17 18 19 21 22 20 17 17 15 13 11 13 16 20 22 23 23 22 20 23 23 22 22 21 17 15 14 13 11 10 9 7 6 5 5 7 7
27 27 25 24 24 26 29 30 25 26 25 25 22 18 19 19 19 18 21 23 17 15 20 18 17 14 12 12 14 18 22 24 25 23 22 22 22 21 20 19 17 16 14 13 12 11 9 8 5 3 1 2 3 6
27 28 27 25 25 26 25 21 20 21 20 23 22 21 21 23 21 21 19 24 23 22 24 21 19 16 13 13 16 21 26 27 26 22 20 20 20 17 16 14 12 11 10 9 9 8 7 6 5 4 3 4 7 10
27 26 24 19 22 18 22 21 22 22 23 22 22 23 24 23 23 25 28 30 26 21 18 16 16 15 15 16 21 26 29 27 23 18 16 17 16 14 13 12 11 10 9 9 9 8 8 8 8 8 8 10 11 13
23 20 15 17 17 17 21 24 22 20 22 21 20 20 21 24 25 30 30 24 19 16 13 11 10 13 16 21 28 31 28 23 18 15 15 14 13 13 12 12 12 11 11 10 10 10 11 11 11 12 13 13 14 16
17 11 15 20 22 23 22 19 20 21 22 22 20 19 24 24 24 18 24 15 10 9 10 12 14 18 24 28 30 27 22 17 15 14 13 12 12 13 13 13 13 13 12 13 13 14 15 15 15 15 16 18 20 21
24 23 22 22 24 22 21 26 27 26 29 28 25 24 23 16 13 11 10 11 17 25 26 24 23 24 27 27 24 20 16 14 13 12 11 11 12 13 13 14 14 15 15 16 17 18 19 20 21 22 24 25 26 27
40 38 36 33 31 30 29 31 34 37 29 23 22 21 14 15 21 24 25 27 28 29 28 27 27 28 26 22 19 15 14 12 11 10 11 13 14 14 14 15 16 17 18 19 20 22 22 23 24 25 26 27 27 28
34 36 37 37 36 35 35 34 34 31 27 26 29 31 31 31 32 32 32 30 28 28 28 29 28 27 24 20 16 13 11 11 10 11 12 14 15 16 17 18 19 21 22 23 24 24 25 26 26 27 27 27 27 27
35 34 34 33 34 32 31 30 30 29 29 29 31 32 32 33 34 33 31 30 30 29 29 29 27 24 21 16 13 11 10 10 11 12 14 15 17 18 20 22 24 25 25 26 26 27 27 28 28 28 28 27 26 25
29 27 30 30 30 27 27 30 31 31 31 31 31 32 33 34 33 32 32 32 31 30 28 26 24 20 16 12 10 10 10 10 12 13 15 16 19 22 24 25 25 26 26 27 27 28 28 28 28 27 26 25 23 21
30 32 31 29 29 31 30 30 30 30 30 29 28 27 27 28 30 33 32 27 22 19 17 16 14 10 9 10 10 10 11 12 13 15 17 19 22 25 27 26 26 26 27 28 29 29 28 27 26 24 23 21 19 17
29 29 30 29 27 24 23 22 22 22 20 19 21 21 21 23 26 27 25 23 20 17 14 11 8 8 9 10 11 12 13 13 15 17 20 24 26 25 24 25 27 27 28 28 28 27 25 24 22 21 19 18 16 16
Wind_Direction
332 334 336 338 339 341 343 347 350 346 346 345 341 338 340 342 342 338 345 335 321 316 343 335 340 330 290 313 305 333 343 21 344 333 303 332 335 358 341 5 44 79 156 196 215 229 257 216 180 214 144 169 297 302
334 335 336 338 340 341 344 349 352 351 352 350 349 349 349 347 349 349 340 335 341 342 343 2 8 344 350 319 332 333 299 306 294 276 301 311 299 330 335 348 0 19 352 296 340 153 211 274 281 281 280 281 291 293
334 335 337 339 340 340 344 348 352 356 359 0 359 355 355 356 353 350 357 355 346 356 23 10 360 357 5 358 325 313 301 309 274 321 310 310 319 310 313 309 327 328 312 289 309 275 304 291 279 282 291 285 284 284
333 336 338 339 340 341 341 347 351 355 356 2 360 1 3 354 348 352 356 358 8 17 16 4 8 10 2 348 328 322 301 262 260 283 294 311 308 294 282 292 305 306 297 308 315 302 295 280 280 280 287 295 289 279
333 336 338 339 340 340 339 343 350 352 348 354 4 2 351 1 7 359 357 3 4 7 350 353 1 5 1 355 8 354 0 287 264 274 275 299 295 290 312 309 319 324 286 289 305 278 278 283 286 289 296 298 294 280
334 336 338 339 340 339 338 341 342 345 345 353 354 3 7 5 355 351 9 6 357 350 348 1 18 4 348 360 1 346 334 338 327 278 280 267 266 283 293 267 280 301 306 310 308 304 295 276 269 280 293 303 314 209
334 337 338 339 339 338 337 337 338 341 342 342 352 2 355 353 358 10 4 351 348 355 12 24 13 12 11 353 346 332 324 320 304 272 250 259 276 279 267 283 306 315 324 325 324 334 351 29 284 294 58 71 81 99
334 337 337 339 338 339 339 338 338 343 344 348 358 356 355 5 4 6 14 20 25 46 45 26 3 1 0 356 356 354 0 8 24 321 303 307 297 278 292 311 315 323 327 333 347 350 7 96 106 102 95 91 93 99
335 336 337 339 341 343 344 345 346 346 354 359 358 357 8 12 10 15 22 24 33 39 37 10 8 355 352 356 5 11 23 36 41 34 41 59 62 53 344 329 328 339 342 357 1 41 67 86 101 114 124 127 122 117
334 335 337 341 345 350 353 354 352 355 1 356 355 358 4 358 6 14 12 8 11 15 16 8 0 355 353 358 6 8 10 25 38 28 47 59 34 27 18 10 7 9 16 17 38 58 56 104 186 180 174 169 164 179
332 333 337 342 346 355 1 4 7 355 344 343 348 348 348 357 8 11 11 3 3 356 351 348 349 350 352 357 2 17 11 15 24 16 25 50 43 47 38 31 28 26 23 18 23 12 318 282 269 263 259 256 263 264
330 331 335 340 341 347 350 348 345 338 334 338 337 333 337 1 1 4 355 355 344 347 345 346 343 341 348 355 3 355 15 21 30 354 29 52 34 27 21 14 13 18 18 13 2 344 320 300 287 281 277 275 273 270
325 327 331 335 337 335 336 338 338 336 333 337 336 328 340 354 6 351 342 341 338 338 342 343 342 337 343 352 337 351 10 1 7 29 31 8 341 332 336 349 350 339 330 326 321 317 315 313 310 304 292 282 276 272
321 323 326 330 333 333 332 331 333 333 335 340 322 305 309 316 327 341 342 342 340 343 344 343 340 324 334 338 329 331 342 358 23 68 21 357 347 336 326 320 317 314 311 305 299 295 292 291 291 289 287 284 280 273
316 319 322 325 328 332 336 336 331 328 328 325 306 286 293 304 316 327 332 336 336 339 342 346 345 338 335 327 324 308 316 301 266 267 320 321 319 316 312 309 306 304 301 298 295 291 292 291 289 290 286 280 274 272
309 312 317 322 324 327 332 334 331 323 317 302 268 294 307 308 312 318 323 327 331 334 336 344 333 317 302 305 292 275 287 270 305 307 311 311 311 309 309 309 308 305 303 300 296 291 286 275 282 291 288 280 274 271
303 306 311 315 319 321 323 326 326 321 297 286 304 307 306 309 314 315 316 320 322 325 327 331 312 286 301 284 267 264 287 304 309 309 309 313 315 315 315 313 310 308 305 302 300 298 290 279 284 290 287 278 269 264
294 302 307 311 314 315 314 315 319 305 307 311 306 303 296 304 308 309 310 314 316 315 315 311 297 283 267 265 288 300 303 307 310 313 317 313 314 316 315 314 311 308 305 301 298 294 290 286 286 285 283 275 268 264
286 293 300 306 311 315 315 315 314 306 311 310 309 300 294 300 302 303 308 309 311 308 305 303 288 279 291 298 300 307 311 316 315 311 311 312 314 317 318 320 320 316 312 309 307 304 300 296 290 286 279 271 266 253
281 287 292 298 306 309 310 301 306 302 301 300 307 305 291 296 303 307 305 303 302 302 300 297 305 301 293 295 304 313 316 317 319 318 315 318 320 325 328 331 331 331 328 327 325 324 316 307 301 291 275 259 243 239
273 278 286 292 294 295 294 295 292 297 295 296 302 300 288 298 301 305 307 307 301 302 306 308 300 290 288 295 312 322 327 327 324 323 322 324 326 329 333 336 338 341 342 345 349 353 352 346 334 319 292 255 243 230
274 275 279 284 291 292 292 294 292 294 292 294 298 294 290 293 301 303 307 309 308 316 311 306 302 281 275 294 311 325 328 326 323 319 317 321 326 327 331 334 336 338 341 344 347 349 349 346 343 348 40 161 187 218
275 274 278 283 287 288 288 290 296 295 283 292 303 297 296 302 299 303 303 307 311 312 307 295 288 270 263 287 313 325 328 325 321 315 313 316 321 324 328 331 334 339 346 355 360 4 6 4 355 339 309 278 265 267
273 275 279 280 275 267 277 284 297 297 294 295 298 298 299 297 299 298 303 313 315 309 303 291 277 259 260 287 311 322 323 320 316 312 310 314 318 322 324 326 328 331 333 335 336 334 329 320 312 307 304 298 292 287
275 271 256 252 251 257 271 286 286 304 299 297 296 300 294 303 298 301 305 317 310 307 308 308 286 266 275 297 309 314 315 314 311 309 312 314 316 319 318 318 319 321 323 325 325 324 321 316 311 306 303 299 295 292
262 251 235 247 250 257 261 261 286 303 303 295 291 292 299 299 294 293 306 315 320 326 328 324 309 297 301 303 307 309 309 307 307 307 309 310 312 313 315 316 317 316 315 313 312 310 309 307 304 301 300 300 299 297
254 251 252 250 252 260 264 277 288 288 291 293 287 286 290 280 287 284 306 304 308 311 313 311 307 307 309 309 308 307 302 299 299 303 306 308 311 312 313 312 313 312 311 311 309 307 306 304 302 299 297 297 296 296
250 254 260 268 265 267 271 279 286 289 291 282 276 277 271 277 285 293 292 295 300 303 307 307 307 309 309 308 306 302 297 294 293 297 305 311 313 313 312 313 313 313 312 310 309 308 307 306 304 302 300 298 296 294
270 273 272 276 279 282 284 284 286 288 291 283 283 290 287 286 289 289 288 289 294 298 300 302 303 303 303 301 296 289 285 284 283 295 306 310 311 312 314 316 316 315 313 313 313 312 311 310 308 306 303 300 297 295
271 280 283 289 288 289 289 286 291 293 289 288 287 287 286 286 286 286 285 287 291 292 294 296 296 295 296 291 283 278 274 273 282 295 305 309 312 314 316 317 317 317 317 317 316 315 314 313 312 310 308 305 303 301
278 280 282 283 285 288 292 292 291 290 288 287 287 284 284 284 282 281 282 285 288 290 290 288 286 285 279 271 267 267 269 279 290 298 304 309 313 315 316 317 318 318 319 318 317 317 316 315 315 313 311 308 306 304
281 282 283 280 285 290 290 290 289 286 285 286 284 280 280 281 281 283 287 288 288 286 285 281 273 263 261 262 266 273 282 290 296 302 308 313 319 320 319 318 318 318 319 320 320 321 321 320 318 317 315 313 311 307
286 284 282 284 287 290 296 299 295 293 293 291 290 287 284 282 281 287 290 287 282 277 271 262 253 250 254 260 266 274 283 294 304 309 313 317 318 318 319 319 320 320 321 322 323 323 323 323 322 321 320 318 317 313